EN

Hourly Weather Dzierzbin

Today, 23 October, Friday

Time Temperature Precipitation Wind Pressure Humidity
00:00 +13°C° 0 mm 4 mps 749 mmHg 79%
01:00 +13°C° 0 mm 5 mps 749 mmHg 77%
02:00 +13°C° 0 mm 5 mps 749 mmHg 77%
03:00 +13°C° 0 mm 4 mps 748 mmHg 76%
04:00 +13°C° 0 mm 4 mps 748 mmHg 76%
05:00 +13°C° 0 mm 4 mps 748 mmHg 76%
06:00 +13°C° 0 mm 4 mps 748 mmHg 76%
07:00 +13°C° 0 mm 4 mps 748 mmHg 76%
08:00 +14°C° 0 mm 4 mps 748 mmHg 75%
09:00 +14°C° 0 mm 4 mps 748 mmHg 74%
10:00 +15°C° 0 mm 5 mps 748 mmHg 73%
11:00 +15°C° 0.1 mm 4 mps 748 mmHg 77%
12:00 +14°C° 0.1 mm 3 mps 748 mmHg 80%
13:00 +15°C° 0.1 mm 2 mps 747 mmHg 84%
14:00 +12°C° 0 mm 3 mps 747 mmHg 87%
15:00 +13°C° 0 mm 3 mps 747 mmHg 85%
16:00 +15°C° 0 mm 2 mps 747 mmHg 82%
17:00 +15°C° 0.1 mm 2 mps 747 mmHg 83%
18:00 +15°C° 0.1 mm 2 mps 747 mmHg 84%
19:00 +14°C° 0.1 mm 1 mps 747 mmHg 85%
20:00 +14°C° 0.3 mm 2 mps 747 mmHg 86%
21:00 +14°C° 0.3 mm 2 mps 747 mmHg 87%
22:00 +14°C° 0.3 mm 2 mps 747 mmHg 88%
23:00 +13°C° 0.4 mm 3 mps 747 mmHg 90%

Tomorrow, 24 October, Saturday

Time Temperature Precipitation Wind Pressure Humidity
00:00 +13°C° 0.4 mm 3 mps 747 mmHg 91%
01:00 +13°C° 0.4 mm 3 mps 747 mmHg 92%
02:00 +13°C° 0.3 mm 2 mps 747 mmHg 92%
03:00 +13°C° 0.3 mm 2 mps 747 mmHg 91%
04:00 +13°C° 0.3 mm 1 mps 747 mmHg 90%
05:00 +12°C° 0 mm 2 mps 747 mmHg 91%
06:00 +12°C° 0 mm 2 mps 748 mmHg 91%
07:00 +12°C° 0 mm 2 mps 748 mmHg 91%
08:00 +12°C° 0 mm 3 mps 748 mmHg 87%
09:00 +13°C° 0 mm 3 mps 749 mmHg 82%
10:00 +15°C° 0 mm 4 mps 749 mmHg 77%
11:00 +15°C° 0.1 mm 5 mps 749 mmHg 75%
12:00 +15°C° 0.1 mm 5 mps 749 mmHg 72%
13:00 +16°C° 0.1 mm 6 mps 749 mmHg 69%
14:00 +15°C° 0 mm 5 mps 750 mmHg 71%
15:00 +15°C° 0 mm 4 mps 750 mmHg 72%
16:00 +14°C° 0 mm 3 mps 750 mmHg 74%
17:00 +13°C° 0 mm 3 mps 750 mmHg 77%
18:00 +12°C° 0 mm 3 mps 750 mmHg 81%
19:00 +13°C° 0 mm 2 mps 751 mmHg 85%
20:00 +12°C° 0 mm 2 mps 751 mmHg 86%
21:00 +12°C° 0 mm 2 mps 751 mmHg 88%
22:00 +12°C° 0 mm 2 mps 751 mmHg 89%
23:00 +10°C° 0 mm 2 mps 751 mmHg 90%

Day after tomorrow, 25 October, Sunday

Time Temperature Precipitation Wind Pressure Humidity
00:00 +10°C° 0 mm 2 mps 751 mmHg 91%
01:00 +10°C° 0 mm 2 mps 751 mmHg 92%
02:00 +10°C° 0 mm 2 mps 751 mmHg 92%
03:00 +10°C° 0 mm 2 mps 751 mmHg 93%
04:00 +9°C° 0 mm 2 mps 751 mmHg 93%
05:00 +9°C° 0 mm 2 mps 751 mmHg 93%
06:00 +9°C° 0 mm 2 mps 751 mmHg 93%
07:00 +9°C° 0 mm 2 mps 751 mmHg 93%
08:00 +10°C° 0 mm 3 mps 751 mmHg 87%
09:00 +12°C° 0 mm 3 mps 751 mmHg 81%
10:00 +13°C° 0 mm 4 mps 751 mmHg 75%
11:00 +14°C° 0 mm 4 mps 751 mmHg 71%
12:00 +15°C° 0 mm 4 mps 751 mmHg 67%
13:00 +17°C° 0 mm 4 mps 750 mmHg 63%
14:00 +17°C° 0 mm 4 mps 750 mmHg 66%
15:00 +16°C° 0 mm 3 mps 750 mmHg 69%
16:00 +14°C° 0 mm 3 mps 749 mmHg 72%
17:00 +14°C° 0 mm 3 mps 749 mmHg 75%
18:00 +13°C° 0 mm 4 mps 749 mmHg 77%
19:00 +12°C° 0 mm 4 mps 749 mmHg 79%
20:00 +12°C° 0 mm 4 mps 749 mmHg 81%
21:00 +11°C° 0 mm 4 mps 749 mmHg 83%
22:00 +11°C° 0 mm 4 mps 748 mmHg 84%
23:00 +10°C° 0 mm 4 mps 748 mmHg 87%

, 26 October, Monday

Time Temperature Precipitation Wind Pressure Humidity
00:00 +10°C° 0 mm 3 mps 748 mmHg 89%
01:00 +10°C° 0 mm 3 mps 747 mmHg 91%
02:00 +9°C° 0 mm 3 mps 747 mmHg 91%
03:00 +9°C° 0 mm 3 mps 747 mmHg 92%
04:00 +9°C° 0 mm 3 mps 746 mmHg 92%
05:00 +9°C° 0 mm 3 mps 746 mmHg 92%
06:00 +8°C° 0 mm 3 mps 746 mmHg 92%
07:00 +8°C° 0 mm 3 mps 745 mmHg 92%
08:00 +10°C° 0 mm 3 mps 745 mmHg 86%
09:00 +11°C° 0 mm 3 mps 745 mmHg 80%
10:00 +12°C° 0 mm 3 mps 745 mmHg 74%
11:00 +13°C° 0 mm 3 mps 744 mmHg 71%
12:00 +14°C° 0 mm 3 mps 744 mmHg 68%
13:00 +16°C° 0 mm 3 mps 743 mmHg 65%
14:00 +16°C° 0 mm 3 mps 743 mmHg 67%
15:00 +14°C° 0 mm 3 mps 743 mmHg 70%
16:00 +14°C° 0 mm 3 mps 742 mmHg 73%
17:00 +13°C° 0 mm 3 mps 742 mmHg 75%
18:00 +13°C° 0 mm 3 mps 742 mmHg 78%
19:00 +13°C° 0 mm 3 mps 742 mmHg 80%
20:00 +13°C° 0 mm 3 mps 742 mmHg 79%
21:00 +13°C° 0 mm 4 mps 742 mmHg 79%
22:00 +13°C° 0 mm 4 mps 742 mmHg 78%
23:00 +13°C° 0 mm 4 mps 742 mmHg 77%

26 October, Monday

Time Temperature Precipitation Wind Pressure Humidity
00:00 +10°C° 0 mm 3 mps 748 mmHg 89%
01:00 +10°C° 0 mm 3 mps 747 mmHg 91%
02:00 +9°C° 0 mm 3 mps 747 mmHg 91%
03:00 +9°C° 0 mm 3 mps 747 mmHg 92%
04:00 +9°C° 0 mm 3 mps 746 mmHg 92%
05:00 +9°C° 0 mm 3 mps 746 mmHg 92%
06:00 +8°C° 0 mm 3 mps 746 mmHg 92%
07:00 +8°C° 0 mm 3 mps 745 mmHg 92%
08:00 +10°C° 0 mm 3 mps 745 mmHg 86%
09:00 +11°C° 0 mm 3 mps 745 mmHg 80%
10:00 +12°C° 0 mm 3 mps 745 mmHg 74%
11:00 +13°C° 0 mm 3 mps 744 mmHg 71%
12:00 +14°C° 0 mm 3 mps 744 mmHg 68%
13:00 +16°C° 0 mm 3 mps 743 mmHg 65%
14:00 +16°C° 0 mm 3 mps 743 mmHg 67%
15:00 +14°C° 0 mm 3 mps 743 mmHg 70%
16:00 +14°C° 0 mm 3 mps 742 mmHg 73%
17:00 +13°C° 0 mm 3 mps 742 mmHg 75%
18:00 +13°C° 0 mm 3 mps 742 mmHg 78%
19:00 +13°C° 0 mm 3 mps 742 mmHg 80%
20:00 +13°C° 0 mm 3 mps 742 mmHg 79%
21:00 +13°C° 0 mm 4 mps 742 mmHg 79%
22:00 +13°C° 0 mm 4 mps 742 mmHg 78%
23:00 +13°C° 0 mm 4 mps 742 mmHg 77%

27 October, Tuesday

Time Temperature Precipitation Wind Pressure Humidity
00:00 +13°C° 0 mm 4 mps 742 mmHg 75%
01:00 +13°C° 0 mm 4 mps 742 mmHg 74%
02:00 +13°C° 0 mm 4 mps 742 mmHg 77%
03:00 +12°C° 0 mm 4 mps 742 mmHg 79%
04:00 +12°C° 0 mm 4 mps 742 mmHg 82%
05:00 +11°C° 0 mm 4 mps 742 mmHg 85%
06:00 +11°C° 0 mm 3 mps 743 mmHg 88%
07:00 +10°C° 0 mm 3 mps 743 mmHg 91%
08:00 +12°C° 0 mm 3 mps 743 mmHg 85%
09:00 +13°C° 0 mm 3 mps 744 mmHg 80%
10:00 +14°C° 0 mm 3 mps 744 mmHg 74%
11:00 +15°C° 0 mm 4 mps 744 mmHg 70%
12:00 +17°C° 0 mm 4 mps 745 mmHg 67%
13:00 +18°C° 0 mm 4 mps 745 mmHg 63%
14:00 +17°C° 0 mm 3 mps 745 mmHg 66%
15:00 +17°C° 0 mm 2 mps 745 mmHg 69%
16:00 +16°C° 0 mm 1 mps 745 mmHg 72%
17:00 +16°C° 0 mm 2 mps 746 mmHg 71%
18:00 +16°C° 0 mm 3 mps 746 mmHg 71%
19:00 +16°C° 0 mm 3 mps 746 mmHg 71%
20:00 +14°C° 0 mm 3 mps 746 mmHg 72%
21:00 +14°C° 0 mm 3 mps 747 mmHg 74%
22:00 +14°C° 0 mm 3 mps 747 mmHg 75%
23:00 +13°C° 0 mm 3 mps 747 mmHg 77%

28 October, Wednesday

Time Temperature Precipitation Wind Pressure Humidity
00:00 +13°C° 0 mm 3 mps 747 mmHg 78%
01:00 +13°C° 0 mm 3 mps 747 mmHg 79%
02:00 +13°C° 0 mm 3 mps 747 mmHg 78%
03:00 +13°C° 0 mm 2 mps 747 mmHg 78%
04:00 +13°C° 0 mm 2 mps 747 mmHg 78%
05:00 +12°C° 0 mm 3 mps 748 mmHg 77%
06:00 +11°C° 0 mm 3 mps 748 mmHg 77%
07:00 +11°C° 0 mm 3 mps 748 mmHg 76%
08:00 +11°C° 0 mm 3 mps 749 mmHg 74%
09:00 +12°C° 0 mm 4 mps 749 mmHg 72%
10:00 +12°C° 0 mm 4 mps 749 mmHg 70%
11:00 +12°C° 0 mm 4 mps 749 mmHg 70%
12:00 +12°C° 0 mm 4 mps 750 mmHg 71%
13:00 +13°C° 0 mm 4 mps 750 mmHg 72%
14:00 +12°C° 0 mm 4 mps 750 mmHg 73%
15:00 +12°C° 0 mm 3 mps 750 mmHg 74%
16:00 +12°C° 0 mm 2 mps 750 mmHg 76%
17:00 +12°C° 0 mm 2 mps 750 mmHg 79%
18:00 +10°C° 0 mm 2 mps 751 mmHg 82%
19:00 +9°C° 0 mm 2 mps 751 mmHg 85%
20:00 +9°C° 0 mm 2 mps 751 mmHg 87%
21:00 +9°C° 0 mm 2 mps 751 mmHg 88%
22:00 +8°C° 0 mm 2 mps 752 mmHg 89%
23:00 +8°C° 0 mm 2 mps 752 mmHg 89%
Show more